| time (UTC) | temp C | wind direction | speed KPH | gust KPH | rain 1hr cm | rain 24hr cm | rain mn cm | humidity % | barometer mb |
| 20260831085048 | 19 | 320 | 0.0 | 9.7 | 0.03 | 0.97 | 0.97 | 67 | 1019.4 |
| 20260831082348 | 21 | 313 | 4.8 | 12.9 | 0.03 | 0.97 | 0.97 | 66 | 1019.0 |
| 20260831080548 | 20 | 310 | 1.6 | 6.4 | 0.00 | 0.94 | 0.94 | 99 | 1018.8 |
| 20260831075648 | 19 | 314 | 3.2 | 8.0 | 0.00 | 0.94 | 0.94 | 99 | 1018.5 |
| 20260831074748 | 17 | 318 | 0.0 | 9.7 | 0.03 | 0.94 | 0.94 | 99 | 1018.5 |
| 20260831073848 | 17 | 348 | 3.2 | 9.7 | 0.05 | 0.94 | 0.94 | 99 | 1018.2 |
| 20260831072948 | 16 | 316 | 0.0 | 6.4 | 0.15 | 0.94 | 0.94 | 99 | 1018.3 |
| 20260831072048 | 16 | 324 | 0.0 | 3.2 | 0.20 | 0.94 | 0.94 | 99 | 1018.1 |
| 20260831071148 | 16 | 320 | 0.0 | 4.8 | 0.28 | 0.94 | 0.94 | 99 | 1017.8 |
| 20260831070248 | 16 | 314 | 0.0 | 3.2 | 0.46 | 0.94 | 0.94 | 99 | 1017.9 |
| 20260831065348 | 15 | 0 | 0.0 | 0.0 | 0.53 | 0.94 | 0.94 | 99 | 1017.7 |
| 20260831064448 | 15 | 314 | 0.0 | 3.2 | 0.89 | 0.89 | 0.89 | 99 | 1018.1 |
| 20260831062648 | 15 | 328 | 0.0 | 6.4 | 0.76 | 0.76 | 0.76 | 98 | 1018.5 |
| 20260831061748 | 15 | 316 | 0.0 | 4.8 | 0.69 | 0.69 | 0.71 | 95 | 1018.6 |
| 20260831060848 | 15 | 315 | 1.6 | 6.4 | 0.48 | 0.48 | 0.64 | 92 | 1018.6 |
| 20260831055948 | 15 | 333 | 1.6 | 20.9 | 0.46 | 0.46 | 0.48 | 90 | 1018.9 |
| 20260831055048 | 15 | 315 | 6.4 | 20.9 | 0.03 | 0.03 | 0.10 | 90 | 1018.8 |
| 20260831054148 | 15 | 317 | 6.4 | 11.3 | 0.00 | 0.00 | 0.00 | 90 | 1018.1 |
| 20260831053248 | 14 | 314 | 0.0 | 1.6 | 0.00 | 0.00 | 0.00 | 89 | 1017.0 |
| 20260831052348 | 14 | 0 | 0.0 | 0.0 | 0.00 | 0.00 | 0.00 | 89 | 1017.0 |
| 20260831051448 | 15 | 0 | 0.0 | 0.0 | 0.00 | 0.00 | 0.00 | 89 | 1017.0 |
| 20260831045648 | 14 | 0 | 0.0 | 0.0 | 0.00 | 0.00 | 0.00 | 89 | 1016.9 |
| 20260831044749 | 13 | 0 | 0.0 | 0.0 | 0.00 | 0.00 | 0.00 | 88 | 1017.0 |
| 20260831043848 | 13 | 0 | 0.0 | 0.0 | 0.00 | 0.00 | 0.00 | 88 | 1017.1 |
| 20260831042948 | 13 | 0 | 0.0 | 0.0 | 0.00 | 0.00 | 0.00 | 87 | 1017.1 |
| 20260831042048 | 13 | 0 | 0.0 | 0.0 | 0.00 | 0.00 | 0.00 | 87 | 1017.0 |
| 20260831041148 | 13 | 0 | 0.0 | 0.0 | 0.00 | 0.00 | 0.00 | 87 | 1017.1 |
| 20260831040248 | 13 | 0 | 0.0 | 0.0 | 0.00 | 0.00 | 0.00 | 87 | 1017.1 |
| 20260831035348 | 13 | 181 | 0.0 | 1.6 | 0.00 | 0.00 | 0.00 | 86 | 1017.1 |
| 20260831034448 | 13 | 0 | 0.0 | 0.0 | 0.00 | 0.00 | 0.00 | 86 | 1017.3 |
| 20260831032648 | 13 | 0 | 0.0 | 0.0 | 0.00 | 0.00 | 0.00 | 86 | 1017.4 |
| 20260831031748 | 13 | 1 | 0.0 | 3.2 | 0.00 | 0.00 | 0.00 | 85 | 1017.7 |
| 20260831030848 | 13 | 1 | 0.0 | 3.2 | 0.00 | 0.00 | 0.00 | 85 | 1017.8 |
| 20260831025948 | 13 | 1 | 0.0 | 3.2 | 0.00 | 0.00 | 0.00 | 85 | 1017.6 |
| 20260831025048 | 13 | 181 | 0.0 | 3.2 | 0.00 | 0.00 | 0.00 | 85 | 1017.9 |
| 20260831024148 | 13 | 181 | 0.0 | 3.2 | 0.00 | 0.00 | 0.00 | 84 | 1018.0 |
| 20260831023248 | 13 | 0 | 0.0 | 0.0 | 0.00 | 0.00 | 0.00 | 84 | 1018.1 |
| 20260831022348 | 13 | 181 | 0.0 | 1.6 | 0.00 | 0.00 | 0.00 | 84 | 1018.2 |
| 20260831021448 | 13 | 0 | 0.0 | 0.0 | 0.00 | 0.00 | 0.00 | 84 | 1018.2 |
| 20260831015648 | 13 | 181 | 0.0 | 1.6 | 0.00 | 0.00 | 0.00 | 83 | 1018.2 |
| 20260831014748 | 13 | 181 | 0.0 | 1.6 | 0.00 | 0.00 | 0.00 | 82 | 1018.2 |
| 20260831013848 | 13 | 181 | 0.0 | 3.2 | 0.00 | 0.00 | 0.00 | 81 | 1018.3 |
| 20260831012048 | 12 | 0 | 0.0 | 0.0 | 0.00 | 0.00 | 0.00 | 80 | 1018.3 |
| 20260831011148 | 12 | 0 | 0.0 | 0.0 | 0.00 | 0.00 | 0.00 | 80 | 1018.3 |
| 20260831010248 | 12 | 0 | 0.0 | 0.0 | 0.00 | 0.00 | 0.00 | 78 | 1018.3 |
| 20260831005348 | 12 | 0 | 0.0 | 0.0 | 0.00 | 0.00 | 0.00 | 78 | 1018.4 |
| 20260831004448 | 12 | 0 | 0.0 | 0.0 | 0.00 | 0.00 | 0.00 | 77 | 1018.4 |
| 20260831003547 | 12 | 181 | 0.0 | 1.6 | 0.00 | 0.00 | 0.00 | 77 | 1018.5 |
| 20260831002648 | 12 | 0 | 0.0 | 0.0 | 0.00 | 0.00 | 0.00 | 75 | 1018.6 |
| 20260831001747 | 12 | 0 | 0.0 | 0.0 | 0.00 | 0.00 | 0.00 | 75 | 1018.6 |
| 20260831000848 | 12 | 0 | 0.0 | 0.0 | 0.00 | 0.00 | 0.00 | 74 | 1018.8 |
| 20260830235948 | 12 | 0 | 0.0 | 0.0 | 0.00 | 0.00 | 0.00 | 73 | 1018.7 |
| 20260830234147 | 13 | 0 | 0.0 | 0.0 | 0.00 | 0.00 | 0.00 | 73 | 1018.6 |
| 20260830233247 | 13 | 181 | 0.0 | 1.6 | 0.00 | 0.00 | 0.00 | 72 | 1018.6 |
| 20260830231448 | 13 | 0 | 0.0 | 0.0 | 0.00 | 0.00 | 0.00 | 71 | 1018.7 |
| 20260830230548 | 13 | 0 | 0.0 | 0.0 | 0.00 | 0.00 | 0.00 | 70 | 1018.7 |
| 20260830225648 | 13 | 0 | 0.0 | 0.0 | 0.00 | 0.00 | 0.00 | 69 | 1018.8 |
| 20260830224747 | 13 | 0 | 0.0 | 0.0 | 0.00 | 0.94 | 0.00 | 68 | 1018.8 |
| 20260830223847 | 13 | 181 | 0.0 | 1.6 | 0.00 | 0.94 | 0.00 | 68 | 1018.9 |
| 20260830222948 | 13 | 181 | 0.0 | 1.6 | 0.00 | 0.94 | 0.00 | 67 | 1018.9 |
| 20260830220247 | 13 | 181 | 0.0 | 1.6 | 0.00 | 0.94 | 0.00 | 64 | 1018.9 |
| 20260830215348 | 13 | 181 | 0.0 | 1.6 | 0.00 | 0.94 | 0.00 | 64 | 1018.9 |
| 20260830214447 | 13 | 181 | 0.0 | 1.6 | 0.00 | 0.94 | 0.00 | 63 | 1018.9 |
| 20260830213547 | 13 | 0 | 0.0 | 0.0 | 0.00 | 0.94 | 0.00 | 61 | 1018.9 |
| 20260830212647 | 14 | 0 | 0.0 | 0.0 | 0.00 | 0.94 | 0.00 | 61 | 1018.8 |
| 20260830211748 | 14 | 0 | 0.0 | 0.0 | 0.00 | 0.94 | 0.00 | 59 | 1018.9 |
| 20260830210847 | 14 | 0 | 0.0 | 0.0 | 0.00 | 0.94 | 0.00 | 58 | 1018.9 |
| 20260830204148 | 15 | 0 | 0.0 | 0.0 | 0.00 | 0.94 | 0.00 | 55 | 1019.1 |
| 20260830203247 | 15 | 181 | 0.0 | 1.6 | 0.00 | 0.94 | 0.00 | 54 | 1019.0 |
| 20260830201447 | 15 | 0 | 0.0 | 0.0 | 0.00 | 0.94 | 0.00 | 52 | 1018.9 |
| 20260830200547 | 15 | 0 | 0.0 | 0.0 | 0.00 | 0.94 | 0.00 | 51 | 1019.0 |
| 20260830195647 | 15 | 181 | 0.0 | 1.6 | 0.00 | 0.94 | 0.00 | 50 | 1019.1 |
| 20260830194747 | 16 | 181 | 0.0 | 3.2 | 0.00 | 0.94 | 0.00 | 48 | 1019.1 |
| 20260830193847 | 16 | 181 | 0.0 | 1.6 | 0.00 | 0.94 | 0.00 | 45 | 1019.0 |
| 20260830192947 | 16 | 181 | 0.0 | 1.6 | 0.00 | 0.94 | 0.00 | 43 | 1019.0 |
| 20260830192047 | 16 | 181 | 0.0 | 3.2 | 0.00 | 0.94 | 0.00 | 42 | 1019.0 |
| 20260830190247 | 17 | 181 | 0.0 | 3.2 | 0.00 | 0.94 | 0.00 | 39 | 1018.9 |
| 20260830184447 | 17 | 181 | 0.0 | 3.2 | 0.00 | 0.94 | 0.00 | 36 | 1018.5 |
| 20260830183548 | 18 | 181 | 0.0 | 3.2 | 0.00 | 0.94 | 0.00 | 34 | 1018.6 |
| 20260830182647 | 18 | 181 | 0.0 | 1.6 | 0.00 | 0.94 | 0.00 | 33 | 1018.5 |
| 20260830181747 | 18 | 181 | 0.0 | 3.2 | 0.00 | 0.94 | 0.00 | 32 | 1018.4 |
| 20260830180847 | 18 | 232 | 0.0 | 3.2 | 0.00 | 0.94 | 0.00 | 31 | 1018.5 |
| 20260830175947 | 19 | 270 | 0.0 | 3.2 | 0.00 | 0.94 | 0.00 | 30 | 1018.2 |
| 20260830175048 | 20 | 270 | 0.0 | 1.6 | 0.00 | 0.94 | 0.00 | 28 | 1018.2 |
| 20260830174147 | 20 | 270 | 0.0 | 1.6 | 0.00 | 0.94 | 0.00 | 25 | 1018.1 |
| 20260830173247 | 21 | 270 | 0.0 | 1.6 | 0.00 | 0.94 | 0.00 | 23 | 1018.0 |
| 20260830172347 | 22 | 270 | 0.0 | 1.6 | 0.00 | 0.94 | 0.00 | 21 | 1018.0 |
| 20260830171447 | 22 | 270 | 0.0 | 1.6 | 0.00 | 0.94 | 0.00 | 19 | 1018.1 |
| 20260830170548 | 23 | 0 | 0.0 | 0.0 | 0.00 | 0.94 | 0.00 | 16 | 1018.0 |
| 20260830165647 | 23 | 270 | 0.0 | 1.6 | 0.00 | 0.94 | 0.00 | 15 | 1017.9 |
| 20260830164747 | 23 | 270 | 0.0 | 3.2 | 0.00 | 0.94 | 0.00 | 14 | 1018.1 |
| 20260830163847 | 23 | 184 | 0.0 | 3.2 | 0.00 | 0.94 | 0.00 | 13 | 1018.0 |
| 20260830162947 | 24 | 317 | 0.0 | 3.2 | 0.00 | 0.94 | 0.00 | 12 | 1018.0 |
| 20260830162047 | 24 | 338 | 0.0 | 3.2 | 0.00 | 0.94 | 0.00 | 13 | 1018.1 |
| 20260830161147 | 24 | 320 | 0.0 | 3.2 | 0.00 | 0.94 | 0.00 | 12 | 1018.0 |
| 20260830160248 | 24 | 314 | 0.0 | 6.4 | 0.00 | 0.94 | 0.00 | 12 | 1018.0 |
| 20260830155347 | 24 | 314 | 0.0 | 4.8 | 0.00 | 0.94 | 0.00 | 13 | 1018.1 |
| 20260830154447 | 24 | 315 | 0.0 | 4.8 | 0.00 | 0.00 | 0.00 | 13 | 1018.1 |
| 20260830153548 | 24 | 308 | 0.0 | 4.8 | 0.00 | 0.00 | 0.00 | 12 | 1017.9 |
| 20260830152647 | 25 | 325 | 0.0 | 4.8 | 0.00 | 0.00 | 0.00 | 13 | 1018.1 |
| 20260830151748 | 24 | 179 | 1.6 | 9.7 | 0.00 | 0.00 | 0.00 | 12 | 1018.1 |
| 20260830145947 | 25 | 280 | 3.2 | 9.7 | 0.00 | 0.00 | 0.00 | 10 | 1018.3 |
| 20260830145048 | 25 | 270 | 0.0 | 8.0 | 0.00 | 0.00 | 0.00 | 10 | 1018.2 |
| 20260830144147 | 25 | 313 | 3.2 | 14.5 | 0.00 | 0.00 | 0.00 | 10 | 1018.3 |
| 20260830143247 | 26 | 318 | 1.6 | 16.1 | 0.00 | 0.00 | 0.00 | 10 | 1018.1 |
| 20260830142347 | 27 | 335 | 1.6 | 9.7 | 0.00 | 0.00 | 0.00 | 10 | 1018.2 |
| 20260830140547 | 27 | 287 | 3.2 | 12.9 | 0.00 | 0.00 | 0.00 | 10 | 1018.2 |
| 20260830135647 | 27 | 209 | 3.2 | 12.9 | 0.00 | 0.00 | 0.00 | 10 | 1018.3 |
| 20260830134748 | 26 | 285 | 1.6 | 6.4 | 0.00 | 0.00 | 0.00 | 10 | 1018.5 |
| 20260830133847 | 25 | 299 | 1.6 | 12.9 | 0.00 | 0.00 | 0.00 | 10 | 1018.4 |
| 20260830132947 | 26 | 314 | 3.2 | 12.9 | 0.00 | 0.00 | 0.00 | 10 | 1018.5 |
| 20260830131147 | 27 | 301 | 0.0 | 8.0 | 0.00 | 0.00 | 0.00 | 10 | 1018.5 |
| 20260830130247 | 27 | 277 | 4.8 | 8.0 | 0.00 | 0.00 | 0.00 | 10 | 1018.6 |
| 20260830125347 | 26 | 336 | 0.0 | 9.7 | 0.00 | 0.00 | 0.00 | 10 | 1018.7 |
| 20260830124447 | 27 | 275 | 3.2 | 12.9 | 0.00 | 0.00 | 0.00 | 10 | 1018.4 |
| 20260830123547 | 27 | 278 | 4.8 | 14.5 | 0.00 | 0.00 | 0.00 | 10 | 1018.6 |
| 20260830121747 | 27 | 247 | 1.6 | 14.5 | 0.00 | 0.00 | 0.00 | 10 | 1018.7 |
| 20260830120847 | 26 | 314 | 1.6 | 8.0 | 0.00 | 0.00 | 0.00 | 10 | 1018.6 |
| 20260830114147 | 26 | 281 | 1.6 | 9.7 | 0.00 | 0.00 | 0.00 | 10 | 1018.7 |
| 20260830113247 | 26 | 291 | 3.2 | 14.5 | 0.00 | 0.00 | 0.00 | 10 | 1018.7 |
| 20260830112347 | 26 | 303 | 4.8 | 11.3 | 0.00 | 0.00 | 0.00 | 10 | 1018.9 |
| 20260830110547 | 26 | 313 | 3.2 | 9.7 | 0.00 | 0.00 | 0.00 | 10 | 1018.8 |
| 20260830105647 | 26 | 260 | 3.2 | 11.3 | 0.00 | 0.00 | 0.00 | 10 | 1018.9 |
| 20260830104747 | 26 | 265 | 3.2 | 12.9 | 0.00 | 0.00 | 0.00 | 10 | 1018.9 |
| 20260830103847 | 25 | 311 | 1.6 | 12.9 | 0.00 | 0.00 | 0.00 | 11 | 1019.0 |
| 20260830102047 | 26 | 338 | 1.6 | 12.9 | 0.00 | 0.00 | 0.00 | 10 | 1019.2 |
| 20260830101147 | 26 | 294 | 3.2 | 11.3 | 0.00 | 0.00 | 0.00 | 10 | 1019.3 |
| 20260830100247 | 26 | 296 | 3.2 | 11.3 | 0.00 | 0.00 | 0.00 | 10 | 1019.2 |
| 20260830095347 | 27 | 318 | 3.2 | 11.3 | 0.00 | 0.00 | 0.00 | 10 | 1019.2 |
| 20260830094447 | 27 | 277 | 1.6 | 6.4 | 0.00 | 0.00 | 0.00 | 10 | 1019.3 |
| 20260830093547 | 26 | 301 | 3.2 | 11.3 | 0.00 | 0.00 | 0.00 | 10 | 1019.2 |
| 20260830092647 | 26 | 310 | 3.2 | 16.1 | 0.00 | 0.00 | 0.00 | 10 | 1019.3 |
| 20260830091747 | 25 | 284 | 3.2 | 11.3 | 0.00 | 0.00 | 0.00 | 10 | 1019.2 |
| 20260830090847 | 26 | 301 | 3.2 | 14.5 | 0.00 | 0.00 | 0.00 | 10 | 1019.3 |
| 20260830085947 | 26 | 318 | 3.2 | 8.0 | 0.00 | 0.00 | 0.00 | 10 | 1019.1 |